Regional Weather Roundup
Issued by NWS Boston, MA

Home | Current Version | Previous Version | Text Only | Print | Product List | Glossary On
Versions: 1 2 3 4 5 6 7 8 9 10 11 12 13 14 15 16 17 18 19 20 21 22 23 24 25 26 27 28 29 30 31 32 33 34 35 36 37 38 39 40 41 42 43 44 45 46 47 48 49 50
000
ASUS41 KBOX 301610
RWRBOX

REGIONAL WEATHER ROUNDUP
NATIONAL WEATHER SERVICE TAUNTON MA
1200 PM EDT SAT AUG 30 2014

NOTE:  "FAIR" INDICATES FEW OR NO CLOUDS BELOW 12,000 FEET WITH NO
SIGNIFICANT WEATHER AND/OR OBSTRUCTIONS TO VISIBILITY.  THE FOLLOWING
OBSERVATION LOCATIONS DO NOT REPORT PRESENT WEATHER...PROVINCETOWN...
SMITHFIELD...BLOCK ISLAND...KEENE...AND OXFORD.

MAZALL-301700-
EASTERN MASSACHUSETTS

CITY           SKY/WX    TMP DP  RH WIND       PRES   REMARKS
BOSTON         MOSUNNY   72  54  53 VRB7      30.26
BEVERLY        SUNNY     72  56  57 S12       30.26F
LAWRENCE       MOSUNNY   72  56  57 S8        30.28F
BEDFORD        SUNNY     73  55  53 S12G18    30.25F
BLUE HILL        N/A     74  54  49 S8        30.27F
NORWOOD        MOSUNNY   73  54  51 S9G18     30.26F
MARSHFIELD     SUNNY     70  55  60 SE9G16    30.29F
PLYMOUTH       SUNNY     70  51  51 S9        30.29F
TAUNTON        PTSUNNY   73  55  53 SW7       30.28F
NEW BEDFORD    MOSUNNY   70  56  61 S8        30.28F
$$

MAZALL-301700-
CAPE COD AND THE ISLANDS

CITY           SKY/WX    TMP DP  RH WIND       PRES   REMARKS
FALMOUTH       SUNNY     70  55  60 SE12      30.30F
HYANNIS        SUNNY     68  53  58 S8        30.30S
CHATHAM        SUNNY     67  53  61 VRB7      30.32F
PROVINCETOWN   SUNNY     70  52  52 SW13      30.30F
NANTUCKET      SUNNY     66  52  60 S9        30.31F
MARTHAS VNYRD  SUNNY     68  54  60 S8        30.31S
$$

MAZALL-301700-
CENTRAL AND WESTERN MASSACHUSETTS

CITY           SKY/WX    TMP DP  RH WIND       PRES   REMARKS
WORCESTER      MOSUNNY   69  53  56 S13       30.28F
FITCHBURG      MOSUNNY   74  52  46 S12       30.27F
ORANGE         PTSUNNY   73  54  51 S14       30.25F
SPRINGFIELD    MOSUNNY   73  58  59 S16       30.24F
WESTFIELD      PTSUNNY   74  58  57 S14       30.24F
NORTH ADAMS    SUNNY     71  54  54 S10       30.23F
PITTSFIELD     PTSUNNY   69  56  62 S12       30.24F
$$

RIZALL-301700-
RHODE ISLAND

CITY           SKY/WX    TMP DP  RH WIND       PRES   REMARKS
PROVIDENCE     MOSUNNY   72  59  63 SE10      30.29F
NEWPORT        PTSUNNY   70  58  65 SE12      30.30F
BLOCK ISLAND   SUNNY     72  57  60 S9        30.30S
SMITHFIELD     MOSUNNY   72  54  53 SE6       30.28F
WESTERLY       SUNNY     71  58  63 SE10      30.30F
$$

CTZALL-301700-
CONNECTICUT

CITY           SKY/WX    TMP DP  RH WIND       PRES   REMARKS
BRADLEY INTL   PTSUNNY   74  57  55 S13       30.24F
HARTFORD       CLOUDY    73  57  57 S10G16    30.25F
BRIDGEPORT     SUNNY     74  61  63 S8        30.26F
DANBURY        MOSUNNY   74  57  55 VRB7      30.26F
GROTON         SUNNY     71  60  68 S10       30.28F
NEW HAVEN      PTSUNNY   76  60  57 SE12      30.26F
CHESTER        PTSUNNY   72  61  68 S6        30.28F
MERIDEN        CLOUDY    74  58  57 S9        30.26F
WILLIMANTIC    PTSUNNY   72  56  57 S10       30.28F
OXFORD         PTSUNNY   72  57  60 S9        30.28F
$$

MEZ002-015-021-024-NHZ003-005-008-011-012-014-VTZ005-008-301700-
NORTHERN NEW ENGLAND

CITY           SKY/WX    TMP DP  RH WIND       PRES   REMARKS
PORTLAND ME    PTSUNNY   69  59  70 S13       30.25F
BANGOR ME      PTSUNNY   71  54  54 S14       30.22F
CONCORD NH     PTSUNNY   73  56  54 SW8       30.24F
MANCHESTER NH  PTSUNNY   71  57  61 SW8       30.24F
NASHUA NH      PTSUNNY   73  56  55 VRB7      30.26F
PORTSMOUTH NH  PTSUNNY   71  58  62 S8        30.25F
JAFFREY NH     MOSUNNY   69  54  58 SW8       30.27F
KEENE NH       MOSUNNY   70  52  52 SW15      30.25F
BURLINGTON VT  MOSUNNY   74  55  51 S18G28    30.13F
MT. WASHINGTON NOT AVBL
$$

NYZ052-076-301700-
EASTERN NEW YORK

CITY           SKY/WX    TMP DP  RH WIND       PRES   REMARKS
ALBANY         MOSUNNY   74  55  51 S18G25    30.20F
NEW YORK CITY  MOSUNNY   77  57  50 S14G22    30.24F
$$

ANZALL-301700-
MARINE OBSERVATIONS

STATION/POSITION TIME  TEMP    WIND        PRES    VSBY  WAVE
                       AIR SEA DIR/SP/G                  HT/PER
                 (UTC) (F)     (DEG/KT/KT) (MB)    (MI)  (FT/S)
BOSTON BUOY      1550   64 67  160/ 14/ 16 1025.6F         2/10
BUZZARDS BAY     1500          150/ 11/ 12 1027.0F
NANTUCKET SOUND  1550   64 70  190/  8/ 10 1026.2F         1
MASS BAY-STELLWA 1504   64 65  180/ 14/ 16   N/A    1 7/8  2/ 3
ISLE OF SHOALS   1600   64     160/ 17/ 18 1024.4F
S OF BLOCK IS    1508      66                N/A           2/ 8
$$

......................KEY.........................
  SKY/WX - SKY CONDITION/PRESENT WEATHER
  TMP    - TEMPERATURE IN FAHRENHEIT
  DWPT   - DEWPOINT IN FAHRENHEIT
  RH     - RELATIVE HUMIDITY IN PERCENT
  WIND   - DIRECTION AND SPEED IN MPH
  PRES   - MEAN SEA LEVEL PRESSURE IN INCHES OF HG
  WCI    - WIND CHILL INDEX
  VSB    - VISIBILITY IN MILES
  HX     - HEAT INDEX
  TC     - TEMPERATURE IN CELSIUS
  VRB    - VARIABLE WIND DIRECTION
  N/A    - NOT AVAILABLE


USA.gov is the U.S. government's official web portal to all federal, state and local government web resources and services.